WA6MHA-11 Weather Reports


Display with metric or nautical units.
time (UTC)temp
F
wind
direction
speed
MPH
gust
MPH
rain 1hr
in
rain 24hr
in
rain mn
in
humidity
%
barometer
mb
20170624015011 85 101 8.0 9.0 0.00 0.00 0.00 29 1014.2
20170624014827 85 108 7.0 10.0 0.00 0.00 0.00 28 1014.3
20170624014642 85 108 7.0 10.0 0.00 0.00 0.00 28 1014.3
20170624014612 85 108 7.0 10.0 0.00 0.00 0.00 28 1014.3
20170624014609 85 108 7.0 10.0 0.00 0.00 0.00 28 1014.3
20170624014527 85 103 9.0 10.0 0.00 0.00 0.00 28 1014.2
20170624014212 85 103 9.0 10.0 0.00 0.00 0.00 28 1014.2
20170624014207 85 103 9.0 10.0 0.00 0.00 0.00 28 1014.2
20170624013808 85 108 8.0 11.0 0.00 0.00 0.00 28 1014.2
20170624013806 85 108 8.0 11.0 0.00 0.00 0.00 28 1014.2
20170624013644 86 108 6.0 11.0 0.00 0.00 0.00 28 1014.0
20170624013409 86 108 6.0 11.0 0.00 0.00 0.00 28 1014.0
20170624013405 86 108 6.0 11.0 0.00 0.00 0.00 28 1014.0
20170624013224 85 108 6.0 12.0 0.00 0.00 0.00 27 1014.0
20170624013006 85 108 6.0 12.0 0.00 0.00 0.00 27 1014.0
20170624013004 85 108 6.0 12.0 0.00 0.00 0.00 27 1014.0
20170624012422 88 126 7.0 14.0 0.00 0.00 0.00 27 1014.0
20170624012201 88 126 7.0 14.0 0.00 0.00 0.00 27 1014.0
20170624011556 91 117 11.0 12.0 0.00 0.00 0.00 27 1013.8
20170624011409 91 117 11.0 12.0 0.00 0.00 0.00 27 1013.8
20170624011358 91 117 11.0 12.0 0.00 0.00 0.00 27 1013.8
20170624011203 92 115 7.0 10.0 0.00 0.00 0.00 27 1013.8
20170624011001 92 115 7.0 10.0 0.00 0.00 0.00 27 1013.8
20170624010957 92 115 7.0 10.0 0.00 0.00 0.00 27 1013.8
20170624010803 94 108 12.0 12.0 0.00 0.00 0.00 27 1013.7
20170624010556 94 108 12.0 12.0 0.00 0.00 0.00 27 1013.7
20170624010346 99 105 7.0 8.0 0.00 0.00 0.00 27 1013.7
20170624010200 99 105 7.0 8.0 0.00 0.00 0.00 27 1013.7
20170624010159 99 105 7.0 8.0 0.00 0.00 0.00 27 1013.7
20170624010155 99 105 7.0 8.0 0.00 0.00 0.00 27 1013.7
20170624010019 100 173 4.0 7.0 0.00 0.00 0.00 27 1013.8
20170624005801 0 173 0.0 0.0 0.00 0.00 0.00 21
20170624005757 100 173 4.0 7.0 0.00 0.00 0.00 27 1013.8
20170624005753 100 173 4.0 7.0 0.00 0.00 0.00 27 1013.8
20170624004950 100 130 2.0 9.0 0.00 0.00 0.00 27 1013.6
20170624004748 99 92 3.0 8.0 0.00 0.00 0.00 27 1013.7
20170624004549 99 92 3.0 8.0 0.00 0.00 0.00 27 1013.7
20170624004148 97 121 5.0 11.0 0.00 0.00 0.00 26 1013.7
20170624004013 97 119 8.0 10.0 0.00 0.00 0.00 26 1013.6
20170624003753 97 119 8.0 10.0 0.00 0.00 0.00 26 1013.6
20170624003747 97 119 8.0 10.0 0.00 0.00 0.00 26 1013.6
20170624003345 98 90 7.0 11.0 0.00 0.00 0.00 26 1013.6
20170624002542 100 110 8.0 12.0 0.00 0.00 0.00 26 1013.7
20170624002144 101 114 9.0 13.0 0.00 0.00 0.00 26 1013.7
20170624002141 101 114 9.0 13.0 0.00 0.00 0.00 26 1013.7
20170624002035 100 101 10.0 18.0 0.00 0.00 0.00 26 1013.7
20170624001745 100 101 10.0 18.0 0.00 0.00 0.00 26 1013.7
20170624001740 100 101 10.0 18.0 0.00 0.00 0.00 26 1013.7
20170624001651 100 94 15.0 18.0 0.00 0.00 0.00 26 1013.7
20170624001341 100 94 15.0 18.0 0.00 0.00 0.00 26 1013.7
20170624001339 100 94 15.0 18.0 0.00 0.00 0.00 26 1013.7
20170624000134 99 105 10.0 12.0 0.00 0.00 0.00 26 1013.8
20170623235611 102 110 10.0 10.0 0.00 0.00 0.00 26 1013.8
20170623235340 102 110 10.0 10.0 0.00 0.00 0.00 26 1013.8
20170623235332 102 110 10.0 10.0 0.00 0.00 0.00 26 1013.8
20170623235215 101 112 8.0 11.0 0.00 0.00 0.00 26 1013.8
20170623234936 101 112 8.0 11.0 0.00 0.00 0.00 26 1013.8
20170623234933 101 112 8.0 11.0 0.00 0.00 0.00 26 1013.8
20170623234931 101 112 8.0 11.0 0.00 0.00 0.00 26 1013.8
20170623234716 101 114 5.0 9.0 0.00 0.00 0.00 27 1013.8
20170623234537 101 114 5.0 9.0 0.00 0.00 0.00 27 1013.8
20170623234534 101 114 5.0 9.0 0.00 0.00 0.00 27 1013.8
20170623234532 101 114 5.0 9.0 0.00 0.00 0.00 27 1013.8
20170623234406 101 92 8.0 10.0 0.00 0.00 0.00 27 1013.9
20170623234133 101 92 8.0 10.0 0.00 0.00 0.00 27 1013.9
20170623234128 101 92 8.0 10.0 0.00 0.00 0.00 27 1013.9
20170623233958 102 110 7.0 10.0 0.00 0.00 0.00 27 1013.9
20170623233727 102 110 7.0 10.0 0.00 0.00 0.00 27 1013.9
20170623233518 101 144 2.0 9.0 0.00 0.00 0.00 27 1014.0
20170623233327 101 144 2.0 9.0 0.00 0.00 0.00 27 1014.0
20170623233325 101 144 2.0 9.0 0.00 0.00 0.00 27 1014.0
20170623233130 102 112 6.0 9.0 0.00 0.00 0.00 27 1014.0
20170623232928 102 112 6.0 9.0 0.00 0.00 0.00 27 1014.0
20170623232924 102 112 6.0 9.0 0.00 0.00 0.00 27 1014.0
20170623232744 100 86 3.0 11.0 0.00 0.00 0.00 26 1013.9
20170623232523 100 86 3.0 11.0 0.00 0.00 0.00 26 1013.9
20170623231713 99 112 6.0 13.0 0.00 0.00 0.00 26 1013.8
20170623231312 98 94 12.0 17.0 0.00 0.00 0.00 26 1013.9
20170623231150 101 90 13.0 13.0 0.00 0.00 0.00 26 1013.8
20170623230912 101 90 13.0 13.0 0.00 0.00 0.00 26 1013.8
20170623230110 100 103 14.0 14.0 0.00 0.00 0.00 26 1013.8
20170623230108 100 103 14.0 14.0 0.00 0.00 0.00 26 1013.8
20170623225934 100 90 10.0 15.0 0.00 0.00 0.00 26 1013.9
20170623225709 100 90 10.0 15.0 0.00 0.00 0.00 26 1013.9
20170623225538 99 85 8.0 11.0 0.00 0.00 0.00 26 1013.9
20170623225305 99 85 8.0 11.0 0.00 0.00 0.00 26 1013.9
20170623225211 100 90 11.0 12.0 0.00 0.00 0.00 26 1013.8
20170623224908 100 90 11.0 12.0 0.00 0.00 0.00 26 1013.8
20170623224904 100 90 11.0 12.0 0.00 0.00 0.00 26 1013.8
20170623224713 100 101 11.0 14.0 0.00 0.00 0.00 26 1014.0
20170623224508 100 101 11.0 14.0 0.00 0.00 0.00 26 1014.0
20170623224503 100 101 11.0 14.0 0.00 0.00 0.00 26 1014.0
20170623224102 101 96 12.0 16.0 0.00 0.00 0.00 26 1013.9
20170623223700 101 117 13.0 16.0 0.00 0.00 0.00 26 1013.9
20170623223302 99 92 10.0 11.0 0.00 0.00 0.00 26 1013.9
20170623223133 97 105 11.0 11.0 0.00 0.00 0.00 26 1014.0
20170623222857 97 105 11.0 11.0 0.00 0.00 0.00 26 1014.0
20170623222740 100 101 13.0 13.0 0.00 0.00 0.00 26 1014.0
20170623222458 100 101 13.0 13.0 0.00 0.00 0.00 26 1014.0
20170623222331 100 112 11.0 12.0 0.00 0.00 0.00 26 1014.1
20170623222055 100 112 11.0 12.0 0.00 0.00 0.00 26 1014.1
20170623221134 99 119 5.0 9.0 0.00 0.00 0.00 26 1014.2
20170623220851 99 119 5.0 9.0 0.00 0.00 0.00 26 1014.2
20170623220709 100 101 7.0 12.0 0.00 0.00 0.00 26 1014.2
20170623220453 100 101 7.0 12.0 0.00 0.00 0.00 26 1014.2
20170623220449 100 101 7.0 12.0 0.00 0.00 0.00 26 1014.2
20170623220048 99 123 8.0 13.0 0.00 0.00 0.00 26 1014.3
20170623215934 100 105 11.0 12.0 0.00 0.00 0.00 26 1014.3
20170623215651 100 105 11.0 12.0 0.00 0.00 0.00 26 1014.3
20170623215528 100 101 10.0 13.0 0.00 0.00 0.00 26 1014.3
20170623215249 100 101 10.0 13.0 0.00 0.00 0.00 26 1014.3
20170623215246 100 101 10.0 13.0 0.00 0.00 0.00 26 1014.3
20170623215056 99 101 8.0 12.0 0.00 0.00 0.00 26 1014.3
20170623214847 99 101 8.0 12.0 0.00 0.00 0.00 26 1014.3
20170623214845 99 101 8.0 12.0 0.00 0.00 0.00 26 1014.3
20170623214443 101 114 11.0 12.0 0.00 0.00 0.00 27 1014.3
20170623214355 100 112 5.0 9.0 0.00 0.00 0.00 26 1014.3
20170623214046 100 112 5.0 9.0 0.00 0.00 0.00 26 1014.3
20170623214041 100 112 5.0 9.0 0.00 0.00 0.00 26 1014.3
20170623213847 100 101 11.0 16.0 0.00 0.00 0.00 26 1014.3
20170623213647 100 101 11.0 16.0 0.00 0.00 0.00 26 1014.3
20170623213640 100 101 11.0 16.0 0.00 0.00 0.00 26 1014.3
20170623213457 99 96 9.0 12.0 0.00 0.00 0.00 26 1014.3
20170623213241 99 96 9.0 12.0 0.00 0.00 0.00 26 1014.3
20170623213239 99 96 9.0 12.0 0.00 0.00 0.00 26 1014.3
20170623212723 99 117 5.0 10.0 0.00 0.00 0.00 27 1014.4
20170623212437 99 117 5.0 10.0 0.00 0.00 0.00 27 1014.4
20170623212319 102 135 8.0 9.0 0.00 0.00 0.00 27 1014.4
20170623212035 102 135 8.0 9.0 0.00 0.00 0.00 27 1014.4
20170623211232 100 127 3.0 8.0 0.00 0.00 0.00 27 1014.4
20170623211145 101 110 2.0 10.0 0.00 0.00 0.00 27 1014.5
20170623210935 101 110 2.0 10.0 0.00 0.00 0.00
20170623210839 101 110 2.0 10.0 0.00 0.00 0.00 27 1014.5
20170623210832 101 110 2.0 10.0 0.00 0.00 0.00 27 1014.5
20170623210643 98 103 6.0 9.0 0.00 0.00 0.00 27 1014.4
20170623210432 98 103 6.0 9.0 0.00 0.00 0.00 27 1014.4
20170623210430 98 103 6.0 9.0 0.00 0.00 0.00 27 1014.4
20170623210249 97 96 12.0 13.0 0.00 0.00 0.00 27 1014.3
20170623210032 97 96 12.0 13.0 0.00 0.00 0.00 27 1014.3
20170623210029 97 96 12.0 13.0 0.00 0.00 0.00 27 1014.3
20170623205627 98 117 13.0 13.0 0.00 0.00 0.00 27 1014.4
20170623205611 99 105 8.0 12.0 0.00 0.00 0.00 27 1014.4
20170623205412 99 105 8.0 12.0 0.00 0.00 0.00 27 1014.4
20170623205230 99 105 8.0 12.0 0.00 0.00 0.00 27 1014.4
20170623205225 99 105 8.0 12.0 0.00 0.00 0.00 27 1014.4
20170623204828 100 118 3.0 9.0 0.00 0.00 0.00 27 1014.4
20170623204826 100 118 3.0 9.0 0.00 0.00 0.00 27 1014.4
20170623204824 100 118 3.0 9.0 0.00 0.00 0.00 27 1014.4
20170623204728 100 117 7.0 14.0 0.00 0.00 0.00 27 1014.4
20170623204621 100 117 7.0 14.0 0.00 0.00 0.00 27 1014.4
20170623204432 100 117 7.0 14.0 0.00 0.00 0.00 27 1014.4
20170623204425 100 117 7.0 14.0 0.00 0.00 0.00 27 1014.4
20170623204423 100 117 7.0 14.0 0.00 0.00 0.00 27 1014.4
20170623204022 98 106 6.0 12.0 0.00 0.00 0.00 27 1014.4
20170623203821 100 90 9.0 12.0 0.00 0.00 0.00 27 1014.4
20170623203625 100 90 9.0 12.0 0.00 0.00 0.00 27 1014.4
20170623203623 100 90 9.0 12.0 0.00 0.00 0.00 27 1014.4
20170623203621 100 90 9.0 12.0 0.00 0.00 0.00 27 1014.4
20170623203402 100 112 8.0 11.0 0.00 0.00 0.00 27 1014.3
20170623203246 98 119 7.0 13.0 0.00 0.00 0.00 27 1014.5
20170623203220 100 112 8.0 11.0 0.00 0.00 0.00 27 1014.3
20170623203050 98 119 7.0 13.0 0.00 0.00 0.00 27 1014.5
20170623202818 98 119 7.0 13.0 0.00 0.00 0.00 27 1014.5
20170623202706 101 108 6.0 12.0 0.00 0.00 0.00 27 1014.5
20170623202423 101 108 6.0 12.0 0.00 0.00 0.00 27 1014.5
20170623202418 101 108 6.0 12.0 0.00 0.00 0.00 27 1014.5
20170623202416 101 108 6.0 12.0 0.00 0.00 0.00 27 1014.5
20170623202307 100 114 12.0 12.0 0.00 0.00 0.00 27 1014.5
20170623202019 100 114 12.0 12.0 0.00 0.00 0.00 27 1014.5
20170623202015 100 114 12.0 12.0 0.00 0.00 0.00 27 1014.5
20170623201910 101 108 9.0 12.0 0.00 0.00 0.00 27 1014.5
20170623201620 101 108 9.0 12.0 0.00 0.00 0.00 27 1014.5
20170623201614 101 108 9.0 12.0 0.00 0.00 0.00 27 1014.5
20170623201052 102 99 7.0 13.0 0.00 0.00 0.00 27 1014.7
20170623200817 102 99 7.0 13.0 0.00 0.00 0.00 27 1014.7
20170623200811 102 99 7.0 13.0 0.00 0.00 0.00 27 1014.7
20170623200645 104 110 10.0 13.0 0.00 0.00 0.00 27 1014.6
20170623200622 105 80 1.0 8.0 0.00 0.00 0.00 27 1014.7
20170623200414 104 110 10.0 13.0 0.00 0.00 0.00 27 1014.6
20170623200410 104 110 10.0 13.0 0.00 0.00 0.00 27 1014.6
20170623200059 104 202 2.0 8.0 0.00 0.00 0.00 27 1014.7
20170623200015 105 80 1.0 8.0 0.00 0.00 0.00 27 1014.7
20170623200009 105 80 1.0 8.0 0.00 0.00 0.00 27 1014.7
20170623195841 104 202 2.0 8.0 0.00 0.00 0.00 27 1014.7
20170623195615 104 202 2.0 8.0 0.00 0.00 0.00 27 1014.7
20170623195609 104 202 2.0 8.0 0.00 0.00 0.00 27 1014.7
20170623195607 104 202 2.0 8.0 0.00 0.00 0.00 27 1014.7
20170623195113 102 180 6.0 9.0 0.00 0.00 0.00 27 1014.8
20170623194808 0 180 6.0 9.0 0.00 0.00 0.00 1014.8
20170623194805 102 180 6.0 9.0 0.00 0.00 0.00 27 1014.8
20170623194507 100 137 3.0 9.0 0.00 0.00 0.00 27 1014.8
20170623194203 98 180 6.0 8.0 0.00 0.00 0.00 27 1014.9
20170623194007 100 137 3.0 9.0 0.00 0.00 0.00 27 1014.8
20170623194002 100 137 3.0 9.0 0.00 0.00 0.00 27 1014.8
20170623193843 98 180 6.0 8.0 0.00 0.00 0.00 27 1014.9
20170623193611 98 180 6.0 8.0 0.00 0.00 0.00 27 1014.9
20170623193602 98 180 6.0 8.0 0.00 0.00 0.00 27 1014.9
20170623193434 99 175 6.0 9.0 0.00 0.00 0.00 27 1014.8
20170623193203 99 175 6.0 9.0 0.00 0.00 0.00 27 1014.8
20170623193159 99 175 6.0 9.0 0.00 0.00 0.00 27 1014.8
20170623193038 98 103 7.0 12.0 0.00 0.00 0.00 27 1014.8
20170623192758 98 103 7.0 12.0 0.00 0.00 0.00 27 1014.8
20170623192252 99 171 5.0 6.0 0.00 0.00 0.00 28 1014.8
20170623192201 99 171 5.0 6.0 0.00 0.00 0.00 28 1014.8
20170623191956 99 171 5.0 6.0 0.00 0.00 0.00 28 1014.8
20170623191908 100 109 5.0 7.0 0.00 0.00 0.00 28 1014.7
20170623191559 100 109 5.0 7.0 0.00 0.00 0.00 28 1014.7
20170623191554 100 109 5.0 7.0 0.00 0.00 0.00 28 1014.7
20170623191407 99 137 1.0 9.0 0.00 0.00 0.00 28 1014.7
20170623191154 99 137 1.0 9.0 0.00 0.00 0.00 28 1014.7
20170623190955 98 110 3.0 8.0 0.00 0.00 0.00 28 1014.6
20170623190751 98 110 3.0 8.0 0.00 0.00 0.00 28 1014.6
20170623190714 98 123 2.0 10.0 0.00 0.00 0.00 28 1014.7
20170623190350 98 123 2.0 10.0 0.00 0.00 0.00 28 1014.7
20170623190229 97 99 10.0 11.0 0.00 0.00 0.00 28 1014.6
20170623185952 97 99 10.0 11.0 0.00 0.00 0.00 28 1014.6
20170623185858 96 94 10.0 11.0 0.00 0.00 0.00 28 1014.7
20170623185551 96 94 10.0 11.0 0.00 0.00 0.00 28 1014.7
20170623185548 96 94 10.0 11.0 0.00 0.00 0.00 28 1014.7
20170623185404 96 105 11.0 11.0 0.00 0.00 0.00 29 1014.6
20170623185146 96 105 11.0 11.0 0.00 0.00 0.00 29 1014.6
20170623184745 96 105 9.0 10.0 0.00 0.00 0.00 29 1014.5
20170623184639 95 108 6.0 12.0 0.00 0.00 0.00 29 1014.5
20170623184621 95 121 6.0 11.0 0.00 0.00 0.00 29 1014.6
20170623184344 95 121 6.0 11.0 0.00 0.00 0.00 29 1014.6
20170623184229 95 108 6.0 12.0 0.00 0.00 0.00 29 1014.5
20170623183951 95 108 6.0 12.0 0.00 0.00 0.00 29 1014.5
20170623183944 95 108 6.0 12.0 0.00 0.00 0.00 29 1014.5
20170623183942 95 108 6.0 12.0 0.00 0.00 0.00 29 1014.5
20170623183817 97 108 9.0 9.0 0.00 0.00 0.00 29 1014.6
20170623183541 97 108 9.0 9.0 0.00 0.00 0.00 29 1014.6
20170623183404 96 117 8.0 8.0 0.00 0.00 0.00 30 1014.6
20170623183046 96 117 8.0 8.0 0.00 0.00 0.00 30 1014.6
20170623182814 95 110 7.0 11.0 0.00 0.00 0.00 30 1014.5
20170623182743 96 117 8.0 8.0 0.00 0.00 0.00 30 1014.6
20170623182738 96 117 8.0 8.0 0.00 0.00 0.00 30 1014.6
20170623182624 95 110 7.0 11.0 0.00 0.00 0.00 30 1014.5
20170623182342 95 110 7.0 11.0 0.00 0.00 0.00 30 1014.5
20170623182337 95 110 7.0 11.0 0.00 0.00 0.00 30 1014.5
20170623182215 96 108 9.0 10.0 0.00 0.00 0.00 30 1014.5
20170623182113 96 117 5.0 8.0 0.00 0.00 0.00 31 1014.6
20170623181936 96 108 9.0 10.0 0.00 0.00 0.00 30 1014.5
20170623181807 96 117 5.0 8.0 0.00 0.00 0.00 31 1014.6
20170623181539 96 117 5.0 8.0 0.00 0.00 0.00 31 1014.6
20170623181536 96 117 5.0 8.0 0.00 0.00 0.00 31 1014.6
20170623181520 95 123 5.0 7.0 0.00 0.00 0.00 31 1014.5
20170623181136 95 123 5.0 7.0 0.00 0.00 0.00 31 1014.5
20170623181133 95 123 5.0 7.0 0.00 0.00 0.00 31 1014.5
20170623181009 93 99 4.0 8.0 0.00 0.00 0.00 31 1014.6
20170623180734 93 99 4.0 8.0 0.00 0.00 0.00 31 1014.6
20170623180609 93 184 6.0 10.0 0.00 0.00 0.00 31 1014.5
20170623180607 93 99 10.0 10.0 0.00 0.00 0.00 32 1014.6
20170623180332 93 184 6.0 10.0 0.00 0.00 0.00 31 1014.5
20170623180330 93 184 6.0 10.0 0.00 0.00 0.00 31 1014.5
20170623180248 93 99 10.0 10.0 0.00 0.00 0.00 32 1014.6
20170623180229 93 110 7.0 7.0 0.00 0.00 0.00 32 1014.6
20170623175938 93 184 2.0 9.0 0.00 0.00 0.00 32 1014.5
20170623175929 93 99 10.0 10.0 0.00 0.00 0.00 32 1014.6
20170623175835 93 110 7.0 7.0 0.00 0.00 0.00 32 1014.6
20170623175536 93 110 7.0 7.0 0.00 0.00 0.00 32 1014.6
20170623175531 93 110 7.0 7.0 0.00 0.00 0.00 32 1014.6
20170623175332 93 184 2.0 9.0 0.00 0.00 0.00 32 1014.5
20170623175137 93 184 2.0 9.0 0.00 0.00 0.00 32 1014.5
20170623175127 93 184 2.0 9.0 0.00 0.00 0.00 32 1014.5
20170623174745 93 153 2.0 8.0 0.00 0.00 0.00 33 1014.5
20170623174725 94 99 5.0 6.0 0.00 0.00 0.00 32 1014.6
20170623174616 93 153 2.0 8.0 0.00 0.00 0.00 33 1014.5
20170623174327 93 153 2.0 8.0 0.00 0.00 0.00 33 1014.5
20170623174324 93 153 2.0 8.0 0.00 0.00 0.00 33 1014.5
20170623173922 92 114 9.0 9.0 0.00 0.00 0.00 33 1014.5
20170623173758 92 99 5.0 11.0 0.00 0.00 0.00 33 1014.5
20170623173521 92 99 5.0 11.0 0.00 0.00 0.00 33 1014.5
20170623173353 91 69 4.0 8.0 0.00 0.00 0.00 34 1014.6
20170623173120 91 69 4.0 8.0 0.00 0.00 0.00 34 1014.6
20170623173116 90 110 8.0 8.0 0.00 0.00 0.00 34 1014.5
20170623172929 90 110 8.0 8.0 0.00 0.00 0.00 34 1014.5
20170623172723 90 110 8.0 8.0 0.00 0.00 0.00 34 1014.5
20170623172721 90 110 8.0 8.0 0.00 0.00 0.00 34 1014.5
20170623172719 90 110 8.0 8.0 0.00 0.00 0.00 34 1014.5
20170623172647 90 87 7.0 9.0 0.00 0.00 0.00 34 1014.5
20170623172538 90 87 7.0 9.0 0.00 0.00 0.00 34 1014.5
20170623172326 90 87 7.0 9.0 0.00 0.00 0.00 34 1014.5
20170623172320 90 87 7.0 9.0 0.00 0.00 0.00 34 1014.5
20170623172318 90 87 7.0 9.0 0.00 0.00 0.00 34 1014.5
20170623172210 90 92 3.0 9.0 0.00 0.00 0.00 35 1014.5
20170623172001 90 92 3.0 9.0 0.00 0.00 0.00 35 1014.5
20170623171924 90 92 3.0 9.0 0.00 0.00 0.00 35 1014.5
20170623171922 90 92 3.0 9.0 0.00 0.00 0.00 35 1014.5
20170623171920 90 92 3.0 9.0 0.00 0.00 0.00 35 1014.5
20170623171744 90 63 9.0 9.0 0.00 0.00 0.00 35 1014.5
20170623171516 90 63 9.0 9.0 0.00 0.00 0.00 35 1014.5
20170623171514 90 63 9.0 9.0 0.00 0.00 0.00 35 1014.5
20170623171113 88 90 6.0 7.0 0.00 0.00 0.00 36 1014.6
20170623171006 87 92 6.0 7.0 0.00 0.00 0.00 36 1014.7
20170623170719 87 92 6.0 7.0 0.00 0.00 0.00 36 1014.7
20170623170712 87 92 6.0 7.0 0.00 0.00 0.00 36 1014.7
20170623170311 88 69 7.0 7.0 0.00 0.00 0.00 37 1014.6
20170623165910 87 0 2.0 3.0 0.00 0.00 0.00 37 1014.6
20170623165755 87 159 2.0 5.0 0.00 0.00 0.00 37 1014.6
20170623165513 87 159 2.0 5.0 0.00 0.00 0.00 37 1014.6
20170623165510 87 159 2.0 5.0 0.00 0.00 0.00 37 1014.6
20170623165508 87 159 2.0 5.0 0.00 0.00 0.00 37 1014.6
20170623165302 85 27 2.0 7.0 0.00 0.00 0.00 38 1014.6
20170623165106 85 27 2.0 7.0 0.00 0.00 0.00 38 1014.6
20170623164705 84 184 0.0 5.0 0.00 0.00 0.00 38 1014.7
20170623164625 84 135 0.0 2.0 0.00 0.00 0.00 39 1014.7
20170623164309 84 135 0.0 2.0 0.00 0.00 0.00 39 1014.7
20170623164304 84 135 0.0 2.0 0.00 0.00 0.00 39 1014.7
20170623164227 83 191 2.0 4.0 0.00 0.00 0.00 39 1014.7
20170623163907 83 191 2.0 4.0 0.00 0.00 0.00 39 1014.7
20170623163903 83 191 2.0 4.0 0.00 0.00 0.00 39 1014.7
20170623163503 82 90 0.0 2.0 0.00 0.00 0.00 40 1014.8
20170623163306 84 186 3.0 6.0 0.00 0.00 0.00 41 1014.8
20170623163108 84 186 3.0 6.0 0.00 0.00 0.00 41 1014.8
20170623163102 84 186 3.0 6.0 0.00 0.00 0.00 41 1014.8
20170623162940 82 198 1.0 4.0 0.00 0.00 0.00 41 1014.9
20170623162703 82 198 1.0 4.0 0.00 0.00 0.00 41 1014.9
20170623162658 82 198 1.0 4.0 0.00 0.00 0.00 41 1014.9
20170623162303 83 105 4.0 4.0 0.00 0.00 0.00 42
20170623162259 83 105 4.0 4.0 0.00 0.00 0.00 42 1014.8
20170623162257 83 105 4.0 4.0 0.00 0.00 0.00 42 1014.8
20170623162204 81 39 0.0 3.0 0.00 0.00 0.00 42 1014.9
20170623161902 81 39 0.0 3.0 0.00 0.00 0.00 42 1014.9
20170623161858 81 39 0.0 3.0 0.00 0.00 0.00 42 1014.9
20170623161856 81 39 0.0 3.0 0.00 0.00 0.00 42 1014.9
20170623161819 78 180 2.0 5.0 0.00 0.00 0.00 43 1014.8
20170623161459 78 180 2.0 5.0 0.00 0.00 0.00 43 1014.8
20170623161455 78 180 2.0 5.0 0.00 0.00 0.00 43 1014.8
20170623161346 78 270 1.0 3.0 0.00 0.00 0.00 43 1014.9
20170623161054 78 270 1.0 3.0 0.00 0.00 0.00 43 1014.9
20170623160932 76 45 1.0 3.0 0.00 0.00 0.00 44 1014.9
20170623160656 76 45 1.0 3.0 0.00 0.00 0.00 44 1014.9
20170623160653 76 45 1.0 3.0 0.00 0.00 0.00 44 1014.9
20170623160252 76 306 1.0 3.0 0.00 0.00 0.00 44 1014.9
20170623160250 76 306 1.0 3.0 0.00 0.00 0.00 44 1014.9
20170623160111 81 87 1.0 2.0 0.00 0.00 0.00 45 1014.9
20170623155749 81 87 1.0 2.0 0.00 0.00 0.00 45 1014.9
20170623155454 81 87 1.0 2.0 0.00 0.00 0.00 45 1014.9
20170623155448 81 87 1.0 2.0 0.00 0.00 0.00 45 1014.9
20170623155314 79 45 2.0 4.0 0.00 0.00 0.00 46 1015.0
20170623155049 79 45 2.0 4.0 0.00 0.00 0.00 46 1015.0
20170623155047 79 45 2.0 4.0 0.00 0.00 0.00 46 1015.0
20170623154650 80 47 1.0 2.0 0.00 0.00 0.00 46 1015.0
20170623154646 80 47 1.0 2.0 0.00 0.00 0.00 46 1015.0
20170623154155 78 135 2.0 2.0 0.00 0.00 0.00 47 1015.1
20170623153845 78 135 2.0 2.0 0.00 0.00 0.00 47 1015.1
20170623153843 78 135 2.0 2.0 0.00 0.00 0.00 47 1015.1
20170623153743 76 348 0.0 2.0 0.00 0.00 0.00 48 1015.2
20170623153443 76 348 0.0 2.0 0.00 0.00 0.00 48 1015.2
20170623153441 76 348 0.0 2.0 0.00 0.00 0.00 48 1015.2
20170623153338 76 0 1.0 2.0 0.00 0.00 0.00 48 1015.1
20170623153040 76 0 1.0 2.0 0.00 0.00 0.00 48 1015.1
20170623152538 76 193 3.0 4.0 0.00 0.00 0.00 48 1015.1
20170623152243 76 193 3.0 4.0 0.00 0.00 0.00 48 1015.1
20170623152240 76 193 3.0 4.0 0.00 0.00 0.00 48 1015.1
20170623152238 76 193 3.0 4.0 0.00 0.00 0.00 48 1015.1
20170623151930 73 192 1.0 1.0 0.00 0.00 0.00 49 1015.0
20170623151756 74 254 2.0 5.0 0.00 0.00 0.00 49 1015.0
20170623151439 74 254 2.0 5.0 0.00 0.00 0.00 49 1015.0
20170623151437 74 254 2.0 5.0 0.00 0.00 0.00 49 1015.0
20170623151435 74 254 2.0 5.0 0.00 0.00 0.00 49 1015.0
20170623151312 73 192 1.0 1.0 0.00 0.00 0.00 49 1015.0
20170623151111 72 299 1.0 3.0 0.00 0.00 0.00 49 1015.0
20170623151038 73 192 1.0 1.0 0.00 0.00 0.00 49 1015.0
20170623151033 73 192 1.0 1.0 0.00 0.00 0.00 49 1015.0
20170623150858 73 225 0.0 1.0 0.00 0.00 0.00 49 1015.1
20170623150644 73 225 0.0 1.0 0.00 0.00 0.00 49 1015.1
20170623150635 73 225 0.0 1.0 0.00 0.00 0.00 49 1015.1
20170623150505 72 299 1.0 3.0 0.00 0.00 0.00 49 1015.0
20170623150234 72 299 1.0 3.0 0.00 0.00 0.00 49 1015.0
20170623145831 72 249 1.0 4.0 0.00 0.00 0.00 49 1015.1
20170623145713 72 204 3.0 3.0 0.00 0.00 0.00 49 1015.0
20170623145429 72 204 3.0 3.0 0.00 0.00 0.00 49 1015.0
20170623144626 71 225 1.0 3.0 0.00 0.00 0.00 49 1015.0
20170623144419 72 270 1.0 1.0 0.00 0.00 0.00 49 1015.0
20170623144229 72 270 1.0 1.0 0.00 0.00 0.00 49 1015.0
20170623144224 72 270 1.0 1.0 0.00 0.00 0.00 49 1015.0
20170623144140 70 2 0.0 0.0 0.00 0.00 0.00 49 1014.9
20170623143825 70 2 0.0 0.0 0.00 0.00 0.00 49 1014.9
20170623143823 70 2 0.0 0.0 0.00 0.00 0.00 49 1014.9
20170623143422 69 299 3.0 4.0 0.00 0.00 0.00 49 1015.0
20170623143251 68 272 2.0 3.0 0.00 0.00 0.00 49 1014.9
20170623143021 68 272 2.0 3.0 0.00 0.00 0.00 49 1014.9
20170623142854 68 225 2.0 4.0 0.00 0.00 0.00 49 1014.9
20170623142622 68 225 2.0 4.0 0.00 0.00 0.00 49 1014.9
20170623142619 68 225 2.0 4.0 0.00 0.00 0.00 49 1014.9
20170623142451 69 180 3.0 3.0 0.00 0.00 0.00 49 1014.9
20170623142223 69 180 3.0 3.0 0.00 0.00 0.00 49 1014.9
20170623142218 69 180 3.0 3.0 0.00 0.00 0.00 49 1014.9
20170623142138 68 180 1.0 3.0 0.00 0.00 0.00 49 1014.9
20170623141816 68 180 1.0 3.0 0.00 0.00 0.00 49 1014.9
20170623141631 68 180 2.0 3.0 0.00 0.00 0.00 49 1014.9
20170623141418 68 180 2.0 3.0 0.00 0.00 0.00 49 1014.9
20170623141415 68 180 2.0 3.0 0.00 0.00 0.00 49 1014.9
20170623141325 68 177 2.0 3.0 0.00 0.00 0.00 49 1014.9
20170623141021 68 177 2.0 3.0 0.00 0.00 0.00 49 1014.9
20170623141015 68 177 2.0 3.0 0.00 0.00 0.00 49 1014.9
20170623140832 67 180 2.0 3.0 0.00 0.00 0.00 49 1014.9
20170623140613 67 180 2.0 3.0 0.00 0.00 0.00 49 1014.9
20170623140526 67 145 0.0 2.0 0.00 0.00 0.00 49 1014.8
20170623140215 67 145 0.0 2.0 0.00 0.00 0.00 49 1014.8
20170623140211 67 145 0.0 2.0 0.00 0.00 0.00 49 1014.8
20170623135704 66 262 0.0 1.0 0.00 0.00 0.00 49 1014.8
20170623135413 66 262 0.0 1.0 0.00 0.00 0.00 49 1014.8
20170623135409 66 262 0.0 1.0 0.00 0.00 0.00 49 1014.8
20170623135345 66 28 0.0 1.0 0.00 0.00 0.00 49 1014.9
20170623135028 65 180 1.0 3.0 0.00 0.00 0.00 49 1014.7
20170623135012 66 28 0.0 1.0 0.00 0.00 0.00 49 1014.9
20170623135007 66 28 0.0 1.0 0.00 0.00 0.00 49 1014.9
20170623134835 66 180 0.0 2.0 0.00 0.00 0.00 49 1014.8
20170623134611 66 180 0.0 2.0 0.00 0.00 0.00 49 1014.8
20170623134606 66 180 0.0 2.0 0.00 0.00 0.00 49 1014.8
20170623134210 65 189 2.0 4.0 0.00 0.00 0.00 49 1014.8
20170623134208 65 189 2.0 4.0 0.00 0.00 0.00 49 1014.8
20170623134205 65 189 2.0 4.0 0.00 0.00 0.00 49 1014.8
20170623134129 65 330 1.0 3.0 0.00 0.00 0.00 49 1014.7
20170623133821 66 184 2.0 2.0 0.00 0.00 0.00 49 1014.8
20170623133805 65 330 1.0 3.0 0.00 0.00 0.00 49 1014.7
20170623133803 65 330 1.0 3.0 0.00 0.00 0.00 49 1014.7
20170623133402 66 184 2.0 2.0 0.00 0.00 0.00 49 1014.8
20170623133001 66 168 1.0 2.0 0.00 0.00 0.00 49 1014.7
20170623132606 65 180 1.0 3.0 0.00 0.00 0.00 49 1014.7
20170623132602 65 180 1.0 3.0 0.00 0.00 0.00 49 1014.7
20170623132559 65 180 1.0 3.0 0.00 0.00 0.00 49 1014.7
20170623132409 65 195 1.0 3.0 0.00 0.00 0.00 49 1014.7
20170623132202 65 195 1.0 3.0 0.00 0.00 0.00 49 1014.7
20170623132200 65 195 1.0 3.0 0.00 0.00 0.00 49 1014.7
20170623132158 65 195 1.0 3.0 0.00 0.00 0.00 49 1014.7
20170623131722 65 222 1.0 3.0 0.00 0.00 0.00 49 1014.6
20170623131358 65 222 1.0 3.0 0.00 0.00 0.00 49 1014.6
20170623131355 65 222 1.0 3.0 0.00 0.00 0.00 49 1014.6
20170623131336 65 198 3.0 6.0 0.00 0.00 0.00 49 1014.5
20170623130954 65 198 3.0 6.0 0.00 0.00 0.00 49 1014.5
20170623130856 64 173 3.0 4.0 0.00 0.00 0.00 49 1014.6
20170623130553 64 173 3.0 4.0 0.00 0.00 0.00 49 1014.6
20170623130205 64 227 2.0 4.0 0.00 0.00 0.00 49 1014.4
20170623130152 64 180 0.0 3.0 0.00 0.00 0.00 49 1014.5
20170623125753 64 227 2.0 4.0 0.00 0.00 0.00 49 1014.4
20170623125750 64 227 2.0 4.0 0.00 0.00 0.00 49 1014.4
20170623125741 64 180 3.0 4.0 0.00 0.00 0.00 49 1014.3
20170623125349 64 180 3.0 4.0 0.00 0.00 0.00 49 1014.3
20170623125321 64 220 2.0 4.0 0.00 0.00 0.00 49 1014.2
20170623124953 64 220 2.0 4.0 0.00 0.00 0.00 49 1014.2
20170623124947 64 220 2.0 4.0 0.00 0.00 0.00 49 1014.2
20170623124832 64 182 5.0 6.0 0.00 0.00 0.00 49 1014.2
20170623124546 64 182 5.0 6.0 0.00 0.00 0.00 49 1014.2
20170623124459 64 202 3.0 4.0 0.00 0.00 0.00 49 1014.1
20170623124145 64 202 3.0 4.0 0.00 0.00 0.00 49 1014.1
20170623124056 64 155 1.0 3.0 0.00 0.00 0.00 49 1014.1
20170623123747 64 155 1.0 3.0 0.00 0.00 0.00 49 1014.1
20170623123744 64 155 1.0 3.0 0.00 0.00 0.00 49 1014.1
20170623123343 64 227 1.0 2.0 0.00 0.00 0.00 49 1014.0
20170623123337 64 240 2.0 2.0 0.00 0.00 0.00 49 1013.8
20170623122942 64 240 2.0 2.0 0.00 0.00 0.00 49 1013.8
20170623122541 64 225 1.0 2.0 0.00 0.00 0.00 49 1013.9
20170623122539 64 225 1.0 2.0 0.00 0.00 0.00 49 1013.9
20170623122536 64 225 2.0 2.0 0.00 0.00 0.00 49 1013.8
20170623122140 64 225 2.0 2.0 0.00 0.00 0.00 49 1013.8
20170623122138 64 225 2.0 2.0 0.00 0.00 0.00 49 1013.8
20170623122059 64 240 2.0 3.0 0.00 0.00 0.00 49 1013.9
20170623122020 64 240 2.0 3.0 0.00 0.00 0.00 49 1013.9
20170623121737 64 240 2.0 3.0 0.00 0.00 0.00 49 1013.9
20170623121632 64 270 2.0 3.0 0.00 0.00 0.00 48 1013.7
20170623121336 64 270 2.0 3.0 0.00 0.00 0.00 48 1013.7
20170623120935 64 195 1.0 3.0 0.00 0.00 0.00 48 1013.8
20170623120500 64 207 1.0 3.0 0.00 0.00 0.00 48 1013.7
20170623120133 64 207 1.0 3.0 0.00 0.00 0.00 48 1013.7
20170623120131 64 207 1.0 3.0 0.00 0.00 0.00 48 1013.7
20170623115730 64 254 3.0 3.0 0.00 0.00 0.00 48 1013.6
20170623115308 64 189 2.0 3.0 0.00 0.00 0.00 48 1013.7
20170623114930 64 189 2.0 3.0 0.00 0.00 0.00 48 1013.7
20170623114928 64 189 2.0 3.0 0.00 0.00 0.00 48 1013.7
20170623114527 64 204 1.0 2.0 0.00 0.00 0.00 48 1013.6
20170623114513 64 166 1.0 2.0 0.00 0.00 0.00 48 1013.6
20170623114130 64 180 2.0 2.0 0.00 0.00 0.00 48 1013.6
20170623114127 64 166 1.0 2.0 0.00 0.00 0.00 48 1013.6
20170623113727 64 180 2.0 2.0 0.00 0.00 0.00 48 1013.6
20170623113723 64 180 2.0 2.0 0.00 0.00 0.00 48 1013.6
20170623113658 64 225 1.0 2.0 0.00 0.00 0.00 48 1013.6
20170623113326 64 225 1.0 2.0 0.00 0.00 0.00 48 1013.6
20170623113324 64 225 1.0 2.0 0.00 0.00 0.00 48 1013.6
20170623113322 64 225 1.0 2.0 0.00 0.00 0.00 48 1013.6
20170623113225 64 230 1.0 2.0 0.00 0.00 0.00 48 1013.6
20170623112923 64 230 1.0 2.0 0.00 0.00 0.00 48 1013.6
20170623112921 64 230 1.0 2.0 0.00 0.00 0.00 48 1013.6
20170623112732 64 218 2.0 2.0 0.00 0.00 0.00 48 1013.7
20170623112523 64 218 2.0 2.0 0.00 0.00 0.00 48 1013.7
20170623112521 64 218 2.0 2.0 0.00 0.00 0.00 48 1013.7
20170623111718 64 254 1.0 2.0 0.00 0.00 0.00 48 1013.7
20170623111228 64 276 1.0 3.0 0.00 0.00 0.00 48 1013.6
20170623110918 64 276 1.0 3.0 0.00 0.00 0.00 48 1013.6
20170623110914 64 276 1.0 3.0 0.00 0.00 0.00 48 1013.6
20170623110807 64 216 2.0 2.0 0.00 0.00 0.00 48 1013.7
20170623110520 64 216 2.0 2.0 0.00 0.00 0.00 48 1013.7
20170623110518 64 216 2.0 2.0 0.00 0.00 0.00 48 1013.7
20170623105956 63 0 0.0 0.0 0.00 0.00 0.00 48 1013.7
20170623105717 63 0 0.0 0.0 0.00 0.00 0.00 48 1013.7
20170623105715 63 0 0.0 0.0 0.00 0.00 0.00 48 1013.7
20170623105711 63 0 0.0 0.0 0.00 0.00 0.00 48 1013.7
20170623105310 64 45 1.0 2.0 0.00 0.00 0.00 48 1013.8
20170623105200 64 76 2.0 4.0 0.00 0.00 0.00 48 1013.8
20170623104912 64 76 2.0 4.0 0.00 0.00 0.00 48 1013.8
20170623104910 64 76 2.0 4.0 0.00 0.00 0.00 48 1013.8
20170623104908 64 76 2.0 4.0 0.00 0.00 0.00 48 1013.8
20170623104512 0 90 4.0 0.0 0.00 0.00 0.00 48
20170623104508 64 90 2.0 4.0 0.00 0.00 0.00 48 1013.8
20170623104506 64 90 2.0 4.0 0.00 0.00 0.00 48 1013.8
20170623104114 65 90 4.0 4.0 0.00 0.00 0.00 48 1013.9
20170623104110 65 90 2.0 5.0 0.00 0.00 0.00 48 1013.9
20170623104105 65 90 2.0 5.0 0.00 0.00 0.00 48 1013.9
20170623103704 65 90 4.0 4.0 0.00 0.00 0.00 48 1013.9
20170623103635 64 67 3.0 3.0 0.00 0.00 0.00 48 1013.9
20170623103329 65 63 3.0 4.0 0.00 0.00 0.00 48 1013.9
20170623103303 64 67 3.0 3.0 0.00 0.00 0.00 48 1013.9
20170623102905 65 63 3.0 4.0 0.00 0.00 0.00 48 1013.9
20170623102902 65 63 3.0 4.0 0.00 0.00 0.00 48 1013.9
20170623102502 65 90 3.0 4.0 0.00 0.00 0.00 48 1013.9
20170623102500 65 90 3.0 4.0 0.00 0.00 0.00 48 1013.9
20170623102059 64 90 2.0 4.0 0.00 0.00 0.00 48 1013.9
20170623101706 65 60 3.0 4.0 0.00 0.00 0.00 48 1014.0
20170623101303 65 90 4.0 4.0 0.00 0.00 0.00 48 1014.1
20170623101300 65 60 3.0 4.0 0.00 0.00 0.00 48 1014.0
20170623101259 65 60 3.0 4.0 0.00 0.00 0.00 48 1014.0
20170623101256 65 60 3.0 4.0 0.00 0.00 0.00 48 1014.0
20170623100857 65 90 4.0 4.0 0.00 0.00 0.00 48 1014.1
20170623100855 65 90 4.0 4.0 0.00 0.00 0.00 48 1014.1
20170623100455 65 112 3.0 3.0 0.00 0.00 0.00 48 1013.9
20170623100339 65 110 3.0 4.0 0.00 0.00 0.00 48 1013.9
20170623100058 65 110 3.0 4.0 0.00 0.00 0.00 48 1013.9
20170623100055 65 110 3.0 4.0 0.00 0.00 0.00 48 1013.9
20170623095651 65 117 3.0 3.0 0.00 0.00 0.00 48 1014.1
20170623095251 65 101 2.0 3.0 0.00 0.00 0.00 48 1014.0
20170623095249 65 101 2.0 3.0 0.00 0.00 0.00 48 1014.0
20170623095202 65 182 0.0 3.0 0.00 0.00 0.00 48 1014.0
20170623094852 65 182 0.0 3.0 0.00 0.00 0.00 48 1014.0
20170623094848 65 182 0.0 3.0 0.00 0.00 0.00 48 1014.0
20170623094839 65 90 2.0 2.0 0.00 0.00 0.00 48 1014.1
20170623094512 65 90 2.0 3.0 0.00 0.00 0.00 48 1014.1
20170623094448 65 90 2.0 2.0 0.00 0.00 0.00 48 1014.1
20170623094050 65 90 2.0 3.0 0.00 0.00 0.00 48 1014.1
20170623094046 65 90 2.0 3.0 0.00 0.00 0.00 48 1014.1
20170623093956 65 90 1.0 3.0 0.00 0.00 0.00 48 1014.1
20170623093650 65 90 1.0 3.0 0.00 0.00 0.00 48 1014.1
20170623093644 65 90 1.0 3.0 0.00 0.00 0.00 48 1014.1
20170623093243 65 94 2.0 3.0 0.00 0.00 0.00 48 1014.1
20170623093221 65 135 0.0 3.0 0.00 0.00 0.00 48 1014.1
20170623092846 65 135 0.0 3.0 0.00 0.00 0.00 48 1014.1
20170623092844 65 108 2.0 4.0 0.00 0.00 0.00 48 1014.1
20170623092842 65 135 0.0 3.0 0.00 0.00 0.00 48 1014.1
20170623092448 65 108 2.0 4.0 0.00 0.00 0.00 48 1014.1
20170623092443 65 108 2.0 4.0 0.00 0.00 0.00 48 1014.1
20170623092440 65 108 2.0 4.0 0.00 0.00 0.00 48 1014.1
20170623092335 65 94 4.0 4.0 0.00 0.00 0.00 48 1014.1
20170623092039 65 94 4.0 4.0 0.00 0.00 0.00 48 1014.1
20170623091958 65 101 5.0 6.0 0.00 0.00 0.00 48 1014.1
20170623091640 65 101 5.0 6.0 0.00 0.00 0.00 48 1014.1
20170623091638 65 101 5.0 6.0 0.00 0.00 0.00 48 1014.1
20170623091255 65 108 3.0 3.0 0.00 0.00 0.00 48 1014.2
20170623091236 65 101 1.0 3.0 0.00 0.00 0.00 48 1014.1
20170623090840 65 108 3.0 3.0 0.00 0.00 0.00 48 1014.2
20170623090837 65 108 3.0 3.0 0.00 0.00 0.00 48 1014.2
20170623090835 65 108 3.0 3.0 0.00 0.00 0.00 48 1014.2
20170623090436 65 101 1.0 3.0 0.00 0.00 0.00 48 1014.2
20170623090434 65 101 1.0 3.0 0.00 0.00 0.00 48 1014.2
20170623090035 65 7 0.0 5.0 0.00 0.00 0.00 48 1014.1
20170623090032 65 7 0.0 5.0 0.00 0.00 0.00 48 1014.1
20170623090026 64 90 2.0 6.0 0.00 0.00 0.00 48 1014.1
20170623085637 64 90 2.0 6.0 0.00 0.00 0.00 48 1014.1
20170623085632 64 90 2.0 6.0 0.00 0.00 0.00 48 1014.1
20170623085233 65 90 3.0 4.0 0.00 0.00 0.00 48 1014.1
20170623085230 65 90 3.0 4.0 0.00 0.00 0.00 48 1014.1
20170623085133 65 105 3.0 5.0 0.00 0.00 0.00 48 1014.1
20170623084830 65 105 3.0 5.0 0.00 0.00 0.00 48 1014.1
20170623084828 65 105 3.0 5.0 0.00 0.00 0.00 48 1014.1
20170623084730 64 90 3.0 4.0 0.00 0.00 0.00 48 1014.1
20170623084433 64 112 6.0 7.0 0.00 0.00 0.00 48 1014.0
20170623084427 64 90 3.0 4.0 0.00 0.00 0.00 48 1014.1
20170623084030 64 112 6.0 7.0 0.00 0.00 0.00 48 1014.0
20170623084026 64 112 6.0 7.0 0.00 0.00 0.00 48 1014.0
20170623083625 64 90 2.0 4.0 0.00 0.00 0.00 48 1014.1
20170623083558 65 112 4.0 7.0 0.00 0.00 0.00 48 1014.1
20170623083228 65 112 4.0 7.0 0.00 0.00 0.00 48 1014.1
20170623083223 65 112 4.0 7.0 0.00 0.00 0.00 48 1014.1
20170623083156 65 103 5.0 7.0 0.00 0.00 0.00 48 1014.1
20170623082826 65 103 5.0 7.0 0.00 0.00 0.00 48 1014.1
20170623082822 65 103 5.0 7.0 0.00 0.00 0.00 48 1014.1
20170623082726 64 90 7.0 7.0 0.00 0.00 0.00 47 1014.1
20170623082420 64 90 7.0 7.0 0.00 0.00 0.00 47 1014.1
20170623082414 64 112 4.0 5.0 0.00 0.00 0.00 47 1014.1
20170623082020 64 112 4.0 5.0 0.00 0.00 0.00 47 1014.1
20170623081901 64 105 2.0 6.0 0.00 0.00 0.00 47 1014.1
20170623081624 64 105 2.0 6.0 0.00 0.00 0.00 47 1014.1
20170623081620 64 105 2.0 6.0 0.00 0.00 0.00 47 1014.1
20170623081618 64 105 2.0 6.0 0.00 0.00 0.00 47 1014.1
20170623081225 64 90 4.0 6.0 0.00 0.00 0.00 47 1014.2
20170623080822 64 90 4.0 6.0 0.00 0.00 0.00 47 1014.2
20170623080817 64 90 4.0 6.0 0.00 0.00 0.00 47 1014.2
20170623080726 64 90 5.0 5.0 0.00 0.00 0.00 47 1014.2
20170623080421 64 90 5.0 5.0 0.00 0.00 0.00 47 1014.2
20170623080416 64 90 5.0 5.0 0.00 0.00 0.00 47 1014.2
20170623080012 63 90 4.0 4.0 0.00 0.00 0.00 47 1014.2
20170623075926 63 96 3.0 4.0 0.00 0.00 0.00 47 1014.0
20170623075613 63 96 3.0 4.0 0.00 0.00 0.00 47 1014.0
20170623075611 63 96 3.0 4.0 0.00 0.00 0.00 47 1014.0
20170623075212 63 112 3.0 4.0 0.00 0.00 0.00 47 1014.1
20170623075210 63 112 3.0 4.0 0.00 0.00 0.00 47 1014.1
20170623074809 63 94 3.0 6.0 0.00 0.00 0.00 46 1014.2
20170623074733 62 94 4.0 6.0 0.00 0.00 0.00 46 1014.1
20170623074410 62 94 4.0 6.0 0.00 0.00 0.00 46 1014.1
20170623074408 62 94 4.0 6.0 0.00 0.00 0.00 46 1014.1
20170623074305 62 123 1.0 1.0 0.00 0.00 0.00 46 1014.2
20170623074007 62 123 1.0 1.0 0.00 0.00 0.00 46 1014.2
20170623073917 62 99 1.0 2.0 0.00 0.00 0.00 46 1014.2
20170623073607 62 99 1.0 2.0 0.00 0.00 0.00 46 1014.2
20170623073604 62 99 1.0 2.0 0.00 0.00 0.00 46 1014.2
20170623073416 62 147 0.0 3.0 0.00 0.00 0.00 46 1014.1
20170623073204 62 147 0.0 3.0 0.00 0.00 0.00 46 1014.1
20170623072806 62 182 3.0 3.0 0.00 0.00 0.00 46 1014.2
20170623072804 62 182 3.0 3.0 0.00 0.00 0.00 46 1014.2
20170623072802 62 182 3.0 3.0 0.00 0.00 0.00 46 1014.2
20170623072401 62 147 2.0 4.0 0.00 0.00 0.00 46 1014.2
20170623072338 62 96 1.0 2.0 0.00 0.00 0.00 46 1014.3
20170623072002 62 96 1.0 2.0 0.00 0.00 0.00 46 1014.3
20170623072000 62 96 1.0 2.0 0.00 0.00 0.00 46 1014.3
20170623071836 62 138 1.0 2.0 0.00 0.00 0.00 46 1014.2
20170623071559 62 138 1.0 2.0 0.00 0.00 0.00 46 1014.2
20170623071156 61 171 2.0 3.0 0.00 0.00 0.00 46 1014.2
20170623070755 61 157 1.0 3.0 0.00 0.00 0.00 46 1014.2
20170623070711 61 148 1.0 2.0 0.00 0.00 0.00 45 1014.2
20170623070354 61 148 1.0 2.0 0.00 0.00 0.00 45 1014.2
20170623070304 61 164 1.0 4.0 0.00 0.00 0.00 45 1014.3
20170623065955 61 164 1.0 4.0 0.00 0.00 0.00 45 1014.3
20170623065953 61 164 1.0 4.0 0.00 0.00 0.00 45 1014.3
20170623065927 61 155 1.0 3.0 0.00 0.00 0.00 45 1014.3
20170623065552 61 155 1.0 3.0 0.00 0.00 0.00 45 1014.3
20170623065440 61 117 2.0 2.0 0.00 0.00 0.00 45 1014.2
20170623065151 61 117 2.0 2.0 0.00 0.00 0.00 45 1014.2
20170623065117 62 131 1.0 4.0 0.00 0.00 0.00 45 1014.3
20170623064751 62 131 1.0 4.0 0.00 0.00 0.00 45 1014.3
20170623064749 62 131 1.0 4.0 0.00 0.00 0.00 45 1014.3
20170623064723 62 71 0.0 2.0 0.00 0.00 0.00 45 1014.2
20170623064636 62 90 2.0 4.0 0.00 0.00 0.00 45 1014.2
20170623064347 62 71 0.0 2.0 0.00 0.00 0.00 45 1014.2
20170623064308 62 95 0.0 3.0 0.00 0.00 0.00 45 1014.2
20170623063946 62 95 0.0 3.0 0.00 0.00 0.00 45 1014.2
20170623063912 62 90 2.0 4.0 0.00 0.00 0.00 45 1014.2
20170623063701 62 90 5.0 6.0 0.00 0.00 0.00 45 1014.2
20170623063550 62 90 2.0 4.0 0.00 0.00 0.00 45 1014.2
20170623063545 62 90 2.0 4.0 0.00 0.00 0.00 45 1014.2
20170623063144 62 112 3.0 6.0 0.00 0.00 0.00 45 1014.2
20170623063128 62 90 5.0 6.0 0.00 0.00 0.00 45 1014.2
20170623062944 62 92 4.0 4.0 0.00 0.00 0.00 44 1014.2
20170623062751 62 90 5.0 6.0 0.00 0.00 0.00 45 1014.2
20170623062743 62 90 5.0 6.0 0.00 0.00 0.00 45 1014.2
20170623062645 62 92 4.0 4.0 0.00 0.00 0.00 44 1014.2
20170623062345 62 92 4.0 4.0 0.00 0.00 0.00 44 1014.2
20170623062341 62 92 4.0 4.0 0.00 0.00 0.00 44 1014.2
20170623062301 62 96 4.0 4.0 0.00 0.00 0.00 44 1014.3
20170623061939 62 96 4.0 4.0 0.00 0.00 0.00 44 1014.3
20170623061836 63 90 4.0 5.0 0.00 0.00 0.00 44 1014.3
20170623061543 63 90 4.0 5.0 0.00 0.00 0.00 44 1014.3
20170623061540 63 90 4.0 5.0 0.00 0.00 0.00 44 1014.3
20170623061538 63 90 4.0 5.0 0.00 0.00 0.00 44 1014.3
20170623061453 63 101 5.0 6.0 0.00 0.00 0.00 44 1014.3
20170623061141 63 101 5.0 6.0 0.00 0.00 0.00 44 1014.3
20170623061139 63 101 5.0 6.0 0.00 0.00 0.00 44 1014.3
20170623061137 63 101 5.0 6.0 0.00 0.00 0.00 44 1014.3
20170623061128 63 121 6.0 6.0 0.00 0.00 0.00 44 1014.3
20170623060743 63 121 6.0 6.0 0.00 0.00 0.00 44 1014.3
20170623060738 63 121 6.0 6.0 0.00 0.00 0.00 44 1014.3
20170623060736 63 121 6.0 6.0 0.00 0.00 0.00 44 1014.3
20170623060641 64 94 4.0 5.0 0.00 0.00 0.00 43 1014.3
20170623060335 63 90 6.0 6.0 0.00 0.00 0.00 44 1014.2
20170623055933 64 103 6.0 6.0 0.00 0.00 0.00 43 1014.3
20170623055906 64 94 4.0 5.0 0.00 0.00 0.00 43 1014.3
20170623055825 64 94 4.0 5.0 0.00 0.00 0.00 43 1014.3
20170623055535 64 94 4.0 5.0 0.00 0.00 0.00 43 1014.3
20170623055532 64 94 4.0 5.0 0.00 0.00 0.00 43 1014.3
20170623055114 64 117 7.0 7.0 0.00 0.00 0.00 43 1014.2
20170623054735 64 117 7.0 7.0 0.00 0.00 0.00 43 1014.2
20170623054730 64 117 7.0 7.0 0.00 0.00 0.00 43 1014.2
20170623054331 65 103 4.0 6.0 0.00 0.00 0.00 43 1014.1
20170623054328 65 103 4.0 6.0 0.00 0.00 0.00 43 1014.1
20170623053927 65 92 5.0 8.0 0.00 0.00 0.00 42 1014.1
20170623053839 65 99 6.0 6.0 0.00 0.00 0.00 42 1014.0
20170623053525 65 99 6.0 6.0 0.00 0.00 0.00 42 1014.0
20170623053124 65 92 5.0 6.0 0.00 0.00 0.00 42 1014.0
20170623052738 66 90 5.0 6.0 0.00 0.00 0.00 41 1013.8
20170623052723 66 94 5.0 6.0 0.00 0.00 0.00 42 1013.9
20170623052337 66 94 6.0 6.0 0.00 0.00 0.00 41 1013.8
20170623052328 66 90 5.0 6.0 0.00 0.00 0.00 41 1013.8
20170623052323 66 90 5.0 6.0 0.00 0.00 0.00 41 1013.8
20170623052321 66 90 5.0 6.0 0.00 0.00 0.00 41 1013.8
20170623052010 66 94 6.0 6.0 0.00 0.00 0.00 41 1013.8
20170623051927 66 94 6.0 6.0 0.00 0.00 0.00 41 1013.8
20170623051922 66 94 6.0 6.0 0.00 0.00 0.00 41 1013.8
20170623051920 66 94 6.0 6.0 0.00 0.00 0.00 41 1013.8
20170623051839 66 92 5.0 6.0 0.00 0.00 0.00 41 1013.8
20170623051530 66 92 5.0 6.0 0.00 0.00 0.00 41 1013.8
20170623051519 66 92 5.0 6.0 0.00 0.00 0.00 41 1013.8
20170623051456 66 94 4.0 5.0 0.00 0.00 0.00 41 1013.9
20170623051121 66 94 4.0 5.0 0.00 0.00 0.00 41 1013.9
20170623051117 66 94 4.0 5.0 0.00 0.00 0.00 41 1013.9
20170623050949 67 94 5.0 7.0 0.00 0.00 0.00 40 1013.7
20170623050716 67 94 5.0 7.0 0.00 0.00 0.00 40 1013.7
20170623050707 67 90 6.0 7.0 0.00 0.00 0.00 40 1013.7
20170623050318 67 90 6.0 7.0 0.00 0.00 0.00 40 1013.7
20170623050315 67 90 6.0 7.0 0.00 0.00 0.00 40 1013.7
20170623050303 67 90 7.0 7.0 0.00 0.00 0.00 40 1013.6
20170623045920 67 90 7.0 7.0 0.00 0.00 0.00 40 1013.6
20170623045913 67 90 7.0 7.0 0.00 0.00 0.00 40 1013.6
20170623045344 67 94 5.0 6.0 0.00 0.00 0.00 40 1013.6
20170623045113 67 94 5.0 6.0 0.00 0.00 0.00 40 1013.6
20170623044709 67 92 4.0 6.0 0.00 0.00 0.00 39 1013.5
20170623044541 67 92 4.0 7.0 0.00 0.00 0.00 39 1013.5
20170623044312 67 92 4.0 7.0 0.00 0.00 0.00 39 1013.5
20170623044308 67 92 4.0 7.0 0.00 0.00 0.00 39 1013.5
20170623043912 67 103 5.0 7.0 0.00 0.00 0.00 39 1013.3
20170623043907 67 103 5.0 7.0 0.00 0.00 0.00 39 1013.3
20170623043758 67 99 6.0 8.0 0.00 0.00 0.00 39 1013.3
20170623043512 67 99 6.0 8.0 0.00 0.00 0.00 39 1013.3
20170623043506 67 99 6.0 8.0 0.00 0.00 0.00 39 1013.3
20170623043342 68 90 7.0 8.0 0.00 0.00 0.00 38 1013.2
20170623043104 68 90 7.0 8.0 0.00 0.00 0.00 38 1013.2
20170623042940 68 90 8.0 8.0 0.00 0.00 0.00 38 1013.0
20170623042707 68 90 8.0 8.0 0.00 0.00 0.00 38 1013.0
20170623042703 68 90 8.0 8.0 0.00 0.00 0.00 38 1013.0
20170623042552 68 90 6.0 7.0 0.00 0.00 0.00 38 1013.0
20170623042301 68 90 6.0 7.0 0.00 0.00 0.00 38 1013.0
20170623042136 68 90 6.0 7.0 0.00 0.00 0.00 37 1013.0
20170623042005 68 90 6.0 7.0 0.00 0.00 0.00 37 1013.0
20170623041902 68 90 6.0 7.0 0.00 0.00 0.00 37 1013.0
20170623041900 68 90 6.0 7.0 0.00 0.00 0.00 37 1013.0
20170623041712 69 90 6.0 7.0 0.00 0.00 0.00 37 1013.0
20170623041503 69 90 6.0 7.0 0.00 0.00 0.00 37 1013.0
20170623041459 69 90 6.0 7.0 0.00 0.00 0.00 37 1013.0
20170623041400 69 92 6.0 7.0 0.00 0.00 0.00 37 1012.9
20170623041058 69 92 6.0 7.0 0.00 0.00 0.00 37 1012.9
20170623041026 69 90 6.0 7.0 0.00 0.00 0.00 37 1012.9
20170623040656 69 90 6.0 7.0 0.00 0.00 0.00 37 1012.9
20170623040252 70 90 4.0 8.0 0.00 0.00 0.00 36 1012.8
20170623035857 70 90 4.0 8.0 0.00 0.00 0.00 36 1012.8
20170623035853 70 90 4.0 8.0 0.00 0.00 0.00 36 1012.8
20170623035452 69 96 7.0 8.0 0.00 0.00 0.00 36 1012.8
20170623035052 69 90 6.0 8.0 0.00 0.00 0.00 36 1012.7
20170623034650 69 114 8.0 8.0 0.00 0.00 0.00 35 1012.7
20170623034627 70 110 9.0 9.0 0.00 0.00 0.00 35 1012.6
20170623034332 70 110 9.0 9.0 0.00 0.00 0.00 35 1012.6
20170623034251 70 110 9.0 9.0 0.00 0.00 0.00 35 1012.6
20170623034249 70 110 9.0 9.0 0.00 0.00 0.00 35 1012.6
20170623033729 70 110 8.0 10.0 0.00 0.00 0.00 34 1012.5
20170623033448 70 110 8.0 10.0 0.00 0.00 0.00 34 1012.5
20170623033445 70 110 8.0 10.0 0.00 0.00 0.00 34 1012.5
20170623033337 70 108 8.0 10.0 0.00 0.00 0.00 34 1012.5
20170623033046 70 108 8.0 10.0 0.00 0.00 0.00 34 1012.5
20170623033044 70 108 8.0 10.0 0.00 0.00 0.00 34 1012.5
20170623032643 71 99 6.0 9.0 0.00 0.00 0.00 33 1012.5
20170623032531 71 103 9.0 10.0 0.00 0.00 0.00 33 1012.4
20170623032248 72 101 6.0 9.0 0.00 0.00 0.00 33 1012.3
20170623032246 71 103 9.0 10.0 0.00 0.00 0.00 33 1012.4
20170623032244 71 103 9.0 10.0 0.00 0.00 0.00 33 1012.4
20170623032242 71 103 9.0 10.0 0.00 0.00 0.00 33 1012.4
20170623031844 72 101 6.0 9.0 0.00 0.00 0.00 33 1012.3
20170623031841 72 101 6.0 9.0 0.00 0.00 0.00 33 1012.3
20170623031456 73 112 6.0 9.0 0.00 0.00 0.00 32 1012.2
20170623031439 73 99 6.0 9.0 0.00 0.00 0.00 32 1012.3
20170623031125 73 112 6.0 9.0 0.00 0.00 0.00 32 1012.2
20170623031042 73 112 6.0 9.0 0.00 0.00 0.00 32 1012.2
20170623031040 73 112 6.0 9.0 0.00 0.00 0.00 32 1012.2
20170623031037 73 112 6.0 9.0 0.00 0.00 0.00 32 1012.2
20170623030925 74 101 7.0 8.0 0.00 0.00 0.00 31 1012.2
20170623030643 74 101 7.0 8.0 0.00 0.00 0.00 31 1012.2
20170623030636 74 101 7.0 8.0 0.00 0.00 0.00 31 1012.2
20170623030235 75 117 7.0 9.0 0.00 0.00 0.00 31 1012.1
20170623025834 76 103 9.0 9.0 0.00 0.00 0.00 31 1012.1
20170623025032 77 112 8.0 10.0 0.00 0.00 0.00 30 1012.1
20170623024629 79 123 9.0 10.0 0.00 0.00 0.00 30 1012.0
20170623024230 80 119 10.0 12.0 0.00 0.00 0.00 29 1012.0
20170623024228 80 119 10.0 12.0 0.00 0.00 0.00 29 1012.0
20170623023827 80 104 5.0 14.0 0.00 0.00 0.00 29 1012.0
20170623023727 81 112 9.0 12.0 0.00 0.00 0.00 29 1012.0
20170623023428 81 112 9.0 12.0 0.00 0.00 0.00 29 1012.0
20170623023426 81 112 9.0 12.0 0.00 0.00 0.00 29 1012.0
20170623023326 82 108 7.0 12.0 0.00 0.00 0.00 28 1011.9
20170623023028 82 108 7.0 12.0 0.00 0.00 0.00 28 1011.9
20170623023025 82 108 7.0 12.0 0.00 0.00 0.00 28 1011.9
20170623022624 82 121 8.0 10.0 0.00 0.00 0.00 28 1011.9
20170623022515 85 112 9.0 10.0 0.00 0.00 0.00 28 1011.8
20170623022226 85 112 9.0 10.0 0.00 0.00 0.00 28 1011.8
20170623022221 85 112 9.0 10.0 0.00 0.00 0.00 28 1011.8
20170623022137 85 101 5.0 12.0 0.00 0.00 0.00 27 1011.8
20170623021827 85 101 5.0 12.0 0.00 0.00 0.00 27 1011.8
20170623021820 85 101 5.0 12.0 0.00 0.00 0.00 27 1011.8
20170623021708 87 117 11.0 12.0 0.00 0.00 0.00 27 1011.7
20170623021425 87 117 11.0 12.0 0.00 0.00 0.00 27 1011.7
20170623021422 87 117 11.0 12.0 0.00 0.00 0.00 27 1011.7
20170623021419 87 117 11.0 12.0 0.00 0.00 0.00 27 1011.7
20170623021311 87 132 3.0 10.0 0.00 0.00 0.00 27 1011.7
20170623021020 87 132 3.0 10.0 0.00 0.00 0.00 27 1011.7
20170623021018 87 132 3.0 10.0 0.00 0.00 0.00 27 1011.7
20170623020833 90 180 4.0 9.0 0.00 0.00 0.00 27 1011.7
20170623020622 90 180 4.0 9.0 0.00 0.00 0.00 27 1011.7
20170623020620 90 180 4.0 9.0 0.00 0.00 0.00 27 1011.7
20170623020617 90 180 4.0 9.0 0.00 0.00 0.00 27 1011.7
20170623020220 88 150 4.0 10.0 0.00 0.00 0.00 26 1011.6
20170623015814 88 150 4.0 10.0 0.00 0.00 0.00 26 1011.6
20170623015413 88 117 6.0 8.0 0.00 0.00 0.00 26 1011.6